{"data":{"norad_id":51629,"epoch":"2026-09-20T01:50:30.837984Z","epoch_age_seconds":62245,"freshness":"FRESH","line1":"1 51629U 22012H   26263.07674581  .00000639  00000+0  17944-2 0  9991","line2":"2 51629  87.8899  17.3809 0001745 100.6101 259.5223 13.10374445221711","mean_motion":13.10374445,"eccentricity":0.0001745,"inclination_deg":87.8899,"raan_deg":17.3809,"arg_perigee_deg":100.6101,"mean_anomaly_deg":259.5223,"bstar":0.0017944,"rev_number":22171,"period_min":109.89225297354,"perigee_km":1220.3846826549,"apogee_km":1223.0370295567,"semimajor_km":7599.8478561058,"source":"CELESTRAK","updated_at":"2026-09-20T09:00:44.709054Z"}}